Time,TemperatureF,DewpointF,PressureIn,WindDirection,WindDirectionDegrees,WindSpeedMPH,WindSpeedGustMPH,Humidity,HourlyPrecipIn,Conditions,Clouds,dailyrainin,SoftwareType,DateUTC
2013-01-30 00:03:00,68.6,65.6,29.91,SE,127,13.0,13.0,90,0.00,,OVC,0.00,VWS V12.08,2013-01-30 06:03:00,
2013-01-30 00:08:00,68.5,65.5,29.91,SE,140,6.0,13.0,90,0.00,,OVC,0.00,VWS V12.08,2013-01-30 06:08:00,
2013-01-30 00:13:00,68.5,65.5,29.91,SE,133,7.0,11.0,90,0.00,,OVC,0.00,VWS V12.08,2013-01-30 06:13:00,
2013-01-30 00:18:00,68.3,65.3,29.91,SSE,162,4.0,12.0,90,0.00,,OVC,0.00,VWS V12.08,2013-01-30 06:18:00,
2013-01-30 00:23:00,68.2,65.2,29.91,South,169,6.0,8.0,90,0.00,,OVC,0.00,VWS V12.08,2013-01-30 06:23:00,
2013-01-30 00:28:00,68.3,65.3,29.91,SE,137,3.0,8.0,90,0.00,,OVC,0.00,VWS V12.08,2013-01-30 06:28:00,
2013-01-30 00:33:00,68.3,65.3,29.90,SE,130,10.0,12.0,90,0.00,,OVC,0.00,VWS V12.08,2013-01-30 06:33:00,
2013-01-30 00:38:00,68.3,65.3,29.90,SSE,148,6.0,12.0,90,0.00,,OVC,0.00,VWS V12.08,2013-01-30 06:38:00,
2013-01-30 00:43:00,68.2,65.2,29.90,South,171,6.0,9.0,90,0.00,,OVC,0.00,VWS V12.08,2013-01-30 06:43:00,
2013-01-30 00:48:00,68.3,65.3,29.90,ESE,121,0.0,12.0,90,0.00,,OVC,0.00,VWS V12.08,2013-01-30 06:48:00,
2013-01-30 00:53:00,68.4,65.4,29.90,SE,140,7.0,7.0,90,0.00,,OVC,0.00,VWS V12.08,2013-01-30 06:53:00,
2013-01-30 00:58:00,68.4,65.4,29.90,SSE,155,10.0,11.0,90,0.00,,OVC,0.00,VWS V12.08,2013-01-30 06:58:00,
2013-01-30 01:03:00,68.1,65.1,29.88,SE,141,3.0,10.0,90,0.00,,OVC,0.00,VWS V12.08,2013-01-30 07:03:00,
2013-01-30 01:08:00,68.2,65.2,29.88,South,171,6.0,10.0,90,0.00,,OVC,0.00,VWS V12.08,2013-01-30 07:08:00,
2013-01-30 01:13:00,68.4,65.4,29.88,SE,134,5.0,10.0,90,0.00,,OVC,0.00,VWS V12.08,2013-01-30 07:13:00,
2013-01-30 01:18:00,68.5,65.5,29.89,SSE,167,5.0,17.0,90,0.00,,OVC,0.00,VWS V12.08,2013-01-30 07:18:00,
2013-01-30 01:23:00,68.6,65.6,29.89,SE,131,8.0,11.0,90,0.00,,OVC,0.00,VWS V12.08,2013-01-30 07:23:00,
2013-01-30 01:28:00,68.5,65.5,29.89,SE,140,16.0,16.0,90,0.00,,OVC,0.00,VWS V12.08,2013-01-30 07:28:00,
2013-01-30 01:33:00,68.4,65.4,29.88,ESE,120,10.0,12.0,90,0.00,,OVC,0.00,VWS V12.08,2013-01-30 07:33:00,
2013-01-30 01:38:00,68.6,65.6,29.88,South,175,10.0,17.0,90,0.00,,OVC,0.00,VWS V12.08,2013-01-30 07:38:00,
2013-01-30 01:43:00,68.5,65.5,29.88,SSE,168,7.0,11.0,90,0.00,,OVC,0.00,VWS V12.08,2013-01-30 07:43:00,
2013-01-30 01:48:00,68.7,65.7,29.87,SSE,161,7.0,13.0,90,0.00,,OVC,0.00,VWS V12.08,2013-01-30 07:48:00,
2013-01-30 01:53:00,68.6,65.6,29.87,South,178,10.0,12.0,90,0.00,,OVC,0.00,VWS V12.08,2013-01-30 07:53:00,
2013-01-30 01:58:00,68.8,65.8,29.87,SSE,161,10.0,12.0,90,0.00,,OVC,0.00,VWS V12.08,2013-01-30 07:58:00,
2013-01-30 02:03:00,68.7,65.7,29.87,South,178,5.0,10.0,90,0.00,,OVC,0.00,VWS V12.08,2013-01-30 08:03:00,
2013-01-30 02:08:00,68.6,65.6,29.87,SSE,165,5.0,10.0,90,0.00,,OVC,0.00,VWS V12.08,2013-01-30 08:08:00,
2013-01-30 02:13:00,68.6,65.6,29.87,SSE,167,6.0,16.0,90,0.00,,OVC,0.00,VWS V12.08,2013-01-30 08:13:00,
2013-01-30 02:18:00,68.8,65.8,29.87,SE,128,10.0,16.0,90,0.00,,OVC,0.00,VWS V12.08,2013-01-30 08:18:00,
2013-01-30 02:23:00,68.8,65.8,29.87,SSE,154,10.0,11.0,90,0.00,,OVC,0.00,VWS V12.08,2013-01-30 08:23:00,
2013-01-30 02:28:00,68.8,65.8,29.87,SE,145,7.0,14.0,90,0.00,,OVC,0.00,VWS V12.08,2013-01-30 08:28:00,
2013-01-30 02:33:00,68.8,65.8,29.87,SE,131,8.0,13.0,90,0.00,,OVC,0.00,VWS V12.08,2013-01-30 08:33:00,
2013-01-30 02:38:00,68.8,65.8,29.87,SSE,161,7.0,14.0,90,0.00,,OVC,0.00,VWS V12.08,2013-01-30 08:38:00,
2013-01-30 02:43:00,69.1,66.1,29.87,SSE,167,10.0,11.0,90,0.00,,OVC,0.00,VWS V12.08,2013-01-30 08:43:00,
2013-01-30 02:48:00,68.9,65.8,29.86,SSE,161,8.0,11.0,90,0.00,,OVC,0.00,VWS V12.08,2013-01-30 08:48:00,
2013-01-30 02:53:00,69.1,66.1,29.86,South,172,11.0,14.0,90,0.00,,OVC,0.00,VWS V12.08,2013-01-30 08:53:00,
2013-01-30 02:58:00,69.3,66.2,29.86,SSE,150,7.0,14.0,90,0.00,,OVC,0.00,VWS V12.08,2013-01-30 08:58:00,
2013-01-30 03:03:00,69.2,66.2,29.86,SSE,158,11.0,16.0,90,0.00,,OVC,0.00,VWS V12.08,2013-01-30 09:03:00,
2013-01-30 03:08:00,69.2,66.2,29.86,South,169,11.0,16.0,90,0.00,,OVC,0.00,VWS V12.08,2013-01-30 09:08:00,
2013-01-30 03:13:00,69.1,66.1,29.86,South,172,10.0,13.0,90,0.00,,OVC,0.00,VWS V12.08,2013-01-30 09:13:00,
2013-01-30 03:18:00,69.2,66.2,29.85,SSE,150,6.0,13.0,90,0.00,,OVC,0.00,VWS V12.08,2013-01-30 09:18:00,
2013-01-30 03:23:00,69.1,66.1,29.85,SE,137,11.0,11.0,90,0.00,,OVC,0.00,VWS V12.08,2013-01-30 09:23:00,
2013-01-30 03:28:00,69.1,66.1,29.85,SSE,162,11.0,11.0,90,0.00,,OVC,0.00,VWS V12.08,2013-01-30 09:28:00,
2013-01-30 03:34:00,69.3,66.2,29.84,South,176,7.0,13.0,90,0.00,,OVC,0.00,VWS V12.08,2013-01-30 09:34:00,
2013-01-30 03:39:00,69.2,66.2,29.84,SSE,161,10.0,13.0,90,0.00,,OVC,0.00,VWS V12.08,2013-01-30 09:39:00,
2013-01-30 03:43:00,69.3,66.2,29.84,SSE,162,7.0,12.0,90,0.00,,OVC,0.00,VWS V12.08,2013-01-30 09:43:00,
2013-01-30 03:49:00,69.4,66.3,29.84,SSE,167,7.0,18.0,90,0.00,,OVC,0.00,VWS V12.08,2013-01-30 09:49:00,
2013-01-30 03:54:00,69.3,66.2,29.84,SSE,164,7.0,12.0,90,0.00,,OVC,0.00,VWS V12.08,2013-01-30 09:54:00,
2013-01-30 03:59:00,69.4,66.3,29.84,SSE,168,7.0,12.0,90,0.00,,OVC,0.00,VWS V12.08,2013-01-30 09:59:00,
2013-01-30 04:04:00,69.2,66.2,29.84,South,171,11.0,12.0,90,0.00,,OVC,0.00,VWS V12.08,2013-01-30 10:04:00,
2013-01-30 04:09:00,69.2,66.2,29.84,SSE,147,6.0,12.0,90,0.00,,OVC,0.00,VWS V12.08,2013-01-30 10:09:00,
2013-01-30 04:14:00,69.2,66.2,29.84,South,169,6.0,10.0,90,0.00,,OVC,0.00,VWS V12.08,2013-01-30 10:14:00,
2013-01-30 04:19:00,69.2,66.2,29.83,SSE,165,7.0,10.0,90,0.00,,OVC,0.00,VWS V12.08,2013-01-30 10:19:00,
2013-01-30 04:24:00,69.2,66.2,29.83,South,171,8.0,11.0,90,0.00,,OVC,0.00,VWS V12.08,2013-01-30 10:24:00,
2013-01-30 04:29:00,69.0,65.9,29.83,SSE,154,7.0,12.0,90,0.00,,OVC,0.00,VWS V12.08,2013-01-30 10:29:00,
2013-01-30 04:34:00,69.2,66.2,29.83,SSE,161,12.0,13.0,90,0.00,,OVC,0.00,VWS V12.08,2013-01-30 10:34:00,
2013-01-30 04:39:00,69.1,66.1,29.83,SSE,167,10.0,14.0,90,0.00,,OVC,0.00,VWS V12.08,2013-01-30 10:39:00,
2013-01-30 04:44:00,69.3,66.2,29.83,South,176,12.0,12.0,90,0.00,,OVC,0.00,VWS V12.08,2013-01-30 10:44:00,
2013-01-30 04:49:00,69.1,66.1,29.82,SSE,167,7.0,12.0,90,0.00,,OVC,0.00,VWS V12.08,2013-01-30 10:49:00,
2013-01-30 04:54:00,69.4,66.3,29.82,South,175,6.0,13.0,90,0.00,,OVC,0.00,VWS V12.08,2013-01-30 10:54:00,
2013-01-30 04:59:00,69.1,66.1,29.82,South,169,8.0,13.0,90,0.00,,OVC,0.00,VWS V12.08,2013-01-30 10:59:00,
2013-01-30 05:04:00,69.1,66.1,29.81,SSE,152,6.0,10.0,90,0.00,,OVC,0.00,VWS V12.08,2013-01-30 11:04:00,
2013-01-30 05:09:00,69.0,65.9,29.81,South,172,7.0,12.0,90,0.00,,OVC,0.00,VWS V12.08,2013-01-30 11:09:00,
2013-01-30 05:14:00,69.0,65.9,29.81,SE,136,7.0,13.0,90,0.00,,OVC,0.00,VWS V12.08,2013-01-30 11:14:00,
2013-01-30 05:19:00,69.1,66.1,29.80,SE,134,6.0,14.0,90,0.00,,OVC,0.00,VWS V12.08,2013-01-30 11:19:00,
2013-01-30 05:24:00,69.1,66.1,29.80,SSE,155,8.0,13.0,90,0.00,,OVC,0.00,VWS V12.08,2013-01-30 11:24:00,
2013-01-30 05:29:00,68.9,65.8,29.79,SSE,167,10.0,17.0,90,0.00,,OVC,0.00,VWS V12.08,2013-01-30 11:29:00,
2013-01-30 05:34:00,68.9,65.8,29.79,SE,143,7.0,12.0,90,0.00,,OVC,0.00,VWS V12.08,2013-01-30 11:34:00,
2013-01-30 05:39:00,69.1,66.1,29.79,SSE,154,8.0,13.0,90,0.00,,OVC,0.00,VWS V12.08,2013-01-30 11:39:00,
2013-01-30 05:44:00,69.0,65.9,29.78,SSE,151,10.0,16.0,90,0.00,,OVC,0.00,VWS V12.08,2013-01-30 11:44:00,
2013-01-30 05:49:00,69.1,66.1,29.78,ESE,102,13.0,18.0,90,0.00,,OVC,0.00,VWS V12.08,2013-01-30 11:49:00,
2013-01-30 05:54:00,69.1,66.1,29.78,SSE,148,8.0,17.0,90,0.00,,OVC,0.00,VWS V12.08,2013-01-30 11:54:00,
2013-01-30 05:59:00,69.1,66.1,29.77,SSE,150,10.0,17.0,90,0.00,,OVC,0.00,VWS V12.08,2013-01-30 11:59:00,
2013-01-30 06:04:00,69.0,65.9,29.77,South,169,13.0,14.0,90,0.00,,OVC,0.00,VWS V12.08,2013-01-30 12:04:00,
2013-01-30 06:09:00,69.0,65.9,29.77,SE,145,10.0,18.0,90,0.00,,OVC,0.00,VWS V12.08,2013-01-30 12:09:00,
2013-01-30 06:14:00,69.0,65.9,29.79,SSE,154,14.0,14.0,90,0.00,,OVC,0.00,VWS V12.08,2013-01-30 12:14:00,
2013-01-30 06:19:00,69.1,66.1,29.79,SSE,151,8.0,14.0,90,0.00,,OVC,0.00,VWS V12.08,2013-01-30 12:19:00,
2013-01-30 06:24:00,69.2,66.2,29.79,SSE,152,7.0,17.0,90,0.00,,OVC,0.00,VWS V12.08,2013-01-30 12:24:00,
2013-01-30 06:29:00,69.1,66.1,29.80,South,188,8.0,17.0,90,0.00,,OVC,0.00,VWS V12.08,2013-01-30 12:29:00,
2013-01-30 06:34:00,69.1,66.1,29.80,SSE,152,10.0,13.0,90,0.00,,OVC,0.00,VWS V12.08,2013-01-30 12:34:00,
2013-01-30 06:39:00,69.4,66.3,29.80,SE,145,10.0,13.0,90,0.00,,OVC,0.00,VWS V12.08,2013-01-30 12:39:00,
2013-01-30 06:44:00,69.4,66.3,29.80,ESE,123,12.0,16.0,90,0.00,,OVC,0.00,VWS V12.08,2013-01-30 12:44:00,
2013-01-30 06:49:00,69.4,66.3,29.80,SSE,165,7.0,17.0,90,0.00,,OVC,0.00,VWS V12.08,2013-01-30 12:49:00,
2013-01-30 06:54:00,69.4,66.3,29.80,South,169,5.0,14.0,90,0.00,,OVC,0.00,VWS V12.08,2013-01-30 12:54:00,
2013-01-30 06:59:00,69.4,66.3,29.79,SSE,152,14.0,17.0,90,0.00,,OVC,0.00,VWS V12.08,2013-01-30 12:59:00,
2013-01-30 07:04:00,69.4,66.3,29.79,SE,130,8.0,13.0,90,0.00,,OVC,0.00,VWS V12.08,2013-01-30 13:04:00,
2013-01-30 07:09:00,69.4,66.3,29.79,SSE,158,7.0,19.0,90,0.00,,OVC,0.00,VWS V12.08,2013-01-30 13:09:00,
2013-01-30 07:14:00,69.4,66.3,29.78,SSE,157,5.0,16.0,90,0.00,,OVC,0.00,VWS V12.08,2013-01-30 13:14:00,
2013-01-30 07:19:00,69.5,66.4,29.78,South,186,11.0,21.0,90,0.00,,OVC,0.00,VWS V12.08,2013-01-30 13:19:00,
2013-01-30 07:24:00,69.6,66.5,29.78,SSE,158,6.0,18.0,90,0.00,,OVC,0.00,VWS V12.08,2013-01-30 13:24:00,
2013-01-30 07:29:00,69.6,66.5,29.78,SSE,157,7.0,18.0,90,0.00,,OVC,0.00,VWS V12.08,2013-01-30 13:29:00,
2013-01-30 07:34:00,69.7,66.6,29.78,SE,130,8.0,16.0,90,0.00,,OVC,0.00,VWS V12.08,2013-01-30 13:34:00,
2013-01-30 07:39:00,69.7,66.6,29.78,South,174,14.0,18.0,90,0.00,,OVC,0.00,VWS V12.08,2013-01-30 13:39:00,
2013-01-30 07:44:00,69.6,66.5,29.78,SSW,192,21.0,21.0,90,0.00,,OVC,0.00,VWS V12.08,2013-01-30 13:44:00,
2013-01-30 07:49:00,69.8,66.7,29.78,SE,140,10.0,21.0,90,0.00,,OVC,0.00,VWS V12.08,2013-01-30 13:49:00,
2013-01-30 07:54:00,69.8,66.7,29.78,SSE,167,13.0,19.0,90,0.00,,OVC,0.00,VWS V12.08,2013-01-30 13:54:00,
2013-01-30 07:59:00,70.1,67.0,29.78,SSE,148,10.0,28.0,90,0.00,,OVC,0.00,VWS V12.08,2013-01-30 13:59:00,
2013-01-30 08:04:00,70.0,66.9,29.78,SSE,147,13.0,19.0,90,0.00,,OVC,0.00,VWS V12.08,2013-01-30 14:04:00,
2013-01-30 08:09:00,70.1,67.0,29.78,South,179,21.0,21.0,90,0.00,,OVC,0.00,VWS V12.08,2013-01-30 14:09:00,
2013-01-30 08:14:00,70.2,67.1,29.77,SE,145,9.0,13.0,90,0.00,,OVC,0.00,VWS V12.08,2013-01-30 14:14:00,
2013-01-30 08:19:00,70.3,67.2,29.77,South,175,14.0,19.0,90,0.00,,OVC,0.00,VWS V12.08,2013-01-30 14:19:00,
2013-01-30 08:24:00,70.3,67.2,29.77,South,178,12.0,14.0,90,0.00,,OVC,0.00,VWS V12.08,2013-01-30 14:24:00,
2013-01-30 08:29:00,70.3,67.2,29.76,South,175,14.0,24.0,90,0.00,,OVC,0.00,VWS V12.08,2013-01-30 14:29:00,
2013-01-30 08:34:00,70.3,67.2,29.76,SSW,195,18.0,18.0,90,0.00,,OVC,0.00,VWS V12.08,2013-01-30 14:34:00,
2013-01-30 08:39:00,70.4,67.3,29.76,South,182,9.0,18.0,90,0.00,,OVC,0.00,VWS V12.08,2013-01-30 14:39:00,
2013-01-30 08:44:00,70.4,67.3,29.77,SSE,164,11.0,16.0,90,0.00,,OVC,0.00,VWS V12.08,2013-01-30 14:44:00,
2013-01-30 08:49:00,70.5,67.4,29.77,SSE,157,10.0,19.0,90,0.00,,OVC,0.00,VWS V12.08,2013-01-30 14:49:00,
2013-01-30 08:54:00,70.5,67.4,29.77,SE,144,7.0,21.0,90,0.00,,OVC,0.00,VWS V12.08,2013-01-30 14:54:00,
2013-01-30 08:59:00,70.6,67.5,29.77,SSE,162,14.0,21.0,90,0.00,,OVC,0.00,VWS V12.08,2013-01-30 14:59:00,
2013-01-30 09:04:00,70.8,67.7,29.77,SSW,195,24.0,24.0,90,0.00,,OVC,0.00,VWS V12.08,2013-01-30 15:04:00,
2013-01-30 09:09:00,70.7,67.6,29.77,SSE,148,7.0,24.0,90,0.00,,OVC,0.00,VWS V12.08,2013-01-30 15:09:00,
2013-01-30 09:14:00,70.8,67.7,29.78,South,191,21.0,21.0,90,0.00,,OVC,0.00,VWS V12.08,2013-01-30 15:14:00,
2013-01-30 09:19:00,70.8,67.7,29.78,SSW,193,16.0,21.0,90,0.00,,OVC,0.00,VWS V12.08,2013-01-30 15:19:00,
2013-01-30 09:24:00,71.1,68.0,29.78,SE,128,10.0,20.0,90,0.00,,OVC,0.00,VWS V12.08,2013-01-30 15:24:00,
2013-01-30 09:29:00,71.1,68.0,29.78,SSE,152,17.0,20.0,90,0.00,,OVC,0.00,VWS V12.08,2013-01-30 15:29:00,
2013-01-30 09:34:00,71.2,68.1,29.78,SSW,213,20.0,21.0,90,0.00,,OVC,0.00,VWS V12.08,2013-01-30 15:34:00,
2013-01-30 09:39:00,71.3,68.2,29.78,SE,144,12.0,25.0,90,0.00,,OVC,0.00,VWS V12.08,2013-01-30 15:39:00,
2013-01-30 09:44:00,71.2,68.1,29.77,SSE,158,17.0,20.0,90,0.00,,OVC,0.00,VWS V12.08,2013-01-30 15:44:00,
2013-01-30 09:49:00,71.3,68.2,29.77,SSE,161,16.0,20.0,90,0.00,,OVC,0.00,VWS V12.08,2013-01-30 15:49:00,
2013-01-30 09:54:00,71.3,68.2,29.77,South,169,7.0,16.0,90,0.00,,OVC,0.00,VWS V12.08,2013-01-30 15:54:00,
2013-01-30 09:59:00,71.5,68.4,29.77,SSE,164,12.0,18.0,90,0.00,,OVC,0.00,VWS V12.08,2013-01-30 15:59:00,
2013-01-30 10:04:00,71.5,68.4,29.77,SSE,152,14.0,19.0,90,0.00,,OVC,0.00,VWS V12.08,2013-01-30 16:04:00,
2013-01-30 10:09:00,71.6,68.5,29.77,SSE,160,14.0,21.0,90,0.00,,OVC,0.00,VWS V12.08,2013-01-30 16:09:00,
2013-01-30 10:14:00,71.6,68.5,29.77,SSE,152,16.0,21.0,90,0.00,,OVC,0.00,VWS V12.08,2013-01-30 16:14:00,
2013-01-30 10:19:00,71.6,68.5,29.77,South,172,10.0,21.0,90,0.00,,OVC,0.00,VWS V12.08,2013-01-30 16:19:00,
2013-01-30 10:24:00,71.6,68.5,29.77,South,181,26.0,26.0,90,0.00,,OVC,0.00,VWS V12.08,2013-01-30 16:24:00,
2013-01-30 10:29:00,71.5,68.4,29.76,South,182,11.0,26.0,90,0.00,,OVC,0.00,VWS V12.08,2013-01-30 16:29:00,
2013-01-30 10:34:00,71.5,68.4,29.76,SSE,157,12.0,17.0,90,0.00,,OVC,0.00,VWS V12.08,2013-01-30 16:34:00,
2013-01-30 10:39:00,71.6,68.5,29.76,South,185,10.0,17.0,90,0.00,,OVC,0.00,VWS V12.08,2013-01-30 16:39:00,
2013-01-30 10:44:00,71.8,68.7,29.76,ESE,119,12.0,14.0,90,0.00,,OVC,0.00,VWS V12.08,2013-01-30 16:44:00,
2013-01-30 10:49:00,72.0,68.9,29.76,South,176,17.0,19.0,90,0.00,,OVC,0.00,VWS V12.08,2013-01-30 16:49:00,
2013-01-30 10:54:00,71.9,68.8,29.76,South,178,10.0,17.0,90,0.00,,OVC,0.00,VWS V12.08,2013-01-30 16:54:00,
2013-01-30 10:59:00,71.9,68.8,29.75,SSE,165,14.0,21.0,90,0.00,,OVC,0.00,VWS V12.08,2013-01-30 16:59:00,
2013-01-30 11:04:00,72.0,68.9,29.75,SSE,167,10.0,14.0,90,0.00,,OVC,0.00,VWS V12.08,2013-01-30 17:04:00,
2013-01-30 11:09:00,72.1,69.0,29.75,SSW,203,21.0,21.0,90,0.00,,OVC,0.00,VWS V12.08,2013-01-30 17:09:00,
2013-01-30 11:14:00,72.4,69.3,29.75,SE,124,12.0,14.0,90,0.00,,OVC,0.00,VWS V12.08,2013-01-30 17:14:00,
2013-01-30 11:19:00,72.5,69.4,29.75,SSE,161,12.0,18.0,90,0.00,,OVC,0.00,VWS V12.08,2013-01-30 17:19:00,
2013-01-30 11:24:00,72.7,69.6,29.75,South,184,11.0,13.0,90,0.00,,OVC,0.00,VWS V12.08,2013-01-30 17:24:00,
2013-01-30 11:29:00,72.6,69.5,29.74,SSE,162,10.0,25.0,90,0.00,,OVC,0.00,VWS V12.08,2013-01-30 17:29:00,
2013-01-30 11:34:00,72.5,69.4,29.74,SSE,155,10.0,16.0,90,0.00,,OVC,0.00,VWS V12.08,2013-01-30 17:34:00,
2013-01-30 11:39:00,72.7,69.6,29.74,South,172,9.0,19.0,90,0.00,,OVC,0.00,VWS V12.08,2013-01-30 17:39:00,
2013-01-30 11:44:00,72.8,69.7,29.74,SSE,154,13.0,16.0,90,0.00,,OVC,0.00,VWS V12.08,2013-01-30 17:44:00,
2013-01-30 11:49:00,73.0,69.9,29.74,SE,137,8.0,17.0,90,0.00,,OVC,0.00,VWS V12.08,2013-01-30 17:49:00,
2013-01-30 11:54:00,72.9,69.8,29.74,South,169,12.0,14.0,90,0.00,,OVC,0.00,VWS V12.08,2013-01-30 17:54:00,
2013-01-30 11:59:00,72.5,69.4,29.73,SSE,155,7.0,20.0,90,0.00,,OVC,0.00,VWS V12.08,2013-01-30 17:59:00,
2013-01-30 12:04:00,72.4,69.3,29.73,South,174,12.0,16.0,90,0.00,,OVC,0.00,VWS V12.08,2013-01-30 18:04:00,
2013-01-30 12:09:00,72.4,69.3,29.73,SE,140,14.0,16.0,90,0.00,,OVC,0.00,VWS V12.08,2013-01-30 18:09:00,
2013-01-30 12:14:00,72.2,69.1,29.72,SSE,151,10.0,24.0,90,0.00,,OVC,0.00,VWS V12.08,2013-01-30 18:14:00,
2013-01-30 12:19:00,72.5,69.4,29.72,South,172,10.0,24.0,90,0.00,,OVC,0.00,VWS V12.08,2013-01-30 18:19:00,
2013-01-30 12:24:00,72.4,69.3,29.72,South,171,14.0,22.0,90,0.00,,OVC,0.00,VWS V12.08,2013-01-30 18:24:00,
2013-01-30 12:29:00,72.7,69.6,29.70,South,179,15.0,22.0,90,0.00,,OVC,0.00,VWS V12.08,2013-01-30 18:29:00,
2013-01-30 12:34:00,71.8,68.7,29.70,SSE,147,18.0,19.0,90,0.00,,OVC,0.00,VWS V12.08,2013-01-30 18:34:00,
2013-01-30 12:39:00,71.8,68.7,29.70,ESE,123,11.0,19.0,90,0.00,,OVC,0.00,VWS V12.08,2013-01-30 18:39:00,
2013-01-30 12:44:00,71.6,68.5,29.69,SSE,168,7.0,20.0,90,0.00,,OVC,0.00,VWS V12.08,2013-01-30 18:44:00,
2013-01-30 12:49:00,71.5,68.4,29.69,SSW,193,8.0,20.0,90,0.00,,OVC,0.00,VWS V12.08,2013-01-30 18:49:00,
2013-01-30 12:54:00,71.2,68.1,29.69,SE,143,11.0,20.0,90,0.00,,OVC,0.00,VWS V12.08,2013-01-30 18:54:00,
2013-01-30 12:59:00,71.1,68.0,29.68,SSE,154,18.0,27.0,90,0.00,,OVC,0.00,VWS V12.08,2013-01-30 18:59:00,
2013-01-30 13:04:00,71.3,68.2,29.68,South,172,18.0,30.0,90,0.00,,OVC,0.00,VWS V12.08,2013-01-30 19:04:00,
2013-01-30 13:09:00,71.8,68.7,29.68,South,179,19.0,32.0,90,0.00,,OVC,0.00,VWS V12.08,2013-01-30 19:09:00,
2013-01-30 13:14:00,71.3,68.2,29.69,SSE,161,13.0,26.0,90,0.00,,OVC,0.00,VWS V12.08,2013-01-30 19:14:00,
2013-01-30 13:19:00,71.3,68.2,29.69,South,175,18.0,26.0,90,0.00,,OVC,0.00,VWS V12.08,2013-01-30 19:19:00,
2013-01-30 13:24:00,71.3,68.2,29.69,South,185,22.0,22.0,90,0.00,,OVC,0.00,VWS V12.08,2013-01-30 19:24:00,
2013-01-30 13:30:00,70.9,67.8,29.67,South,178,14.0,22.0,90,0.00,,OVC,0.00,VWS V12.08,2013-01-30 19:30:00,
2013-01-30 13:35:00,71.3,68.2,29.67,SSW,193,17.0,26.0,90,0.00,,OVC,0.00,VWS V12.08,2013-01-30 19:35:00,
2013-01-30 13:40:00,71.2,68.1,29.67,WSW,240,3.0,26.0,90,0.00,,OVC,0.00,VWS V12.08,2013-01-30 19:40:00,
2013-01-30 13:45:00,71.2,68.1,29.66,SSE,164,19.0,20.0,90,0.00,,OVC,0.00,VWS V12.08,2013-01-30 19:45:00,
2013-01-30 13:50:00,71.4,68.3,29.66,SSE,161,16.0,31.0,90,0.00,,OVC,0.00,VWS V12.08,2013-01-30 19:50:00,
2013-01-30 13:55:00,71.3,68.2,29.66,SSE,168,12.0,21.0,90,0.00,,OVC,0.00,VWS V12.08,2013-01-30 19:55:00,
2013-01-30 14:00:00,71.2,68.1,29.67,SSW,198,21.0,21.0,90,0.00,,OVC,0.00,VWS V12.08,2013-01-30 20:00:00,
2013-01-30 14:05:00,71.3,68.2,29.67,SSE,152,12.0,28.0,90,0.00,,OVC,0.00,VWS V12.08,2013-01-30 20:05:00,
2013-01-30 14:10:00,71.6,68.5,29.67,SSE,164,17.0,17.0,90,0.00,,OVC,0.00,VWS V12.08,2013-01-30 20:10:00,
2013-01-30 14:15:00,71.7,68.6,29.66,South,179,22.0,27.0,90,0.00,,OVC,0.00,VWS V12.08,2013-01-30 20:15:00,
2013-01-30 14:20:00,71.8,68.7,29.66,South,184,26.0,26.0,90,0.00,,OVC,0.00,VWS V12.08,2013-01-30 20:20:00,
2013-01-30 14:25:00,71.7,68.6,29.66,South,186,22.0,30.0,90,0.00,,OVC,0.00,VWS V12.08,2013-01-30 20:25:00,
2013-01-30 14:30:00,71.6,68.5,29.65,South,185,17.0,17.0,90,0.00,,OVC,0.00,VWS V12.08,2013-01-30 20:30:00,
2013-01-30 14:35:00,71.6,68.5,29.65,South,182,10.0,17.0,90,0.00,,OVC,0.00,VWS V12.08,2013-01-30 20:35:00,
2013-01-30 14:40:00,71.6,68.5,29.65,South,175,19.0,21.0,90,0.00,,OVC,0.00,VWS V12.08,2013-01-30 20:40:00,
2013-01-30 14:45:00,71.9,68.8,29.64,SSE,152,16.0,21.0,90,0.00,,OVC,0.00,VWS V12.08,2013-01-30 20:45:00,
2013-01-30 14:50:00,72.1,69.0,29.64,SSE,152,17.0,17.0,90,0.00,,OVC,0.00,VWS V12.08,2013-01-30 20:50:00,
2013-01-30 14:55:00,70.9,67.8,29.64,WSW,251,11.0,30.0,90,0.00,,OVC,0.00,VWS V12.08,2013-01-30 20:55:00,
2013-01-30 15:00:00,67.4,64.4,29.69,SSW,212,9.0,9.0,90,0.00,,OVC,0.00,VWS V12.08,2013-01-30 21:00:00,
2013-01-30 15:05:00,65.9,62.9,29.69,West,272,14.0,15.0,90,0.00,,OVC,0.00,VWS V12.08,2013-01-30 21:05:00,
2013-01-30 15:10:00,65.0,62.0,29.69,WSW,258,20.0,20.0,90,0.00,,OVC,0.00,VWS V12.08,2013-01-30 21:10:00,
2013-01-30 15:15:00,64.9,61.9,29.69,WNW,287,14.0,20.0,90,0.00,,OVC,0.00,VWS V12.08,2013-01-30 21:15:00,
2013-01-30 15:20:00,64.9,61.9,29.69,WNW,292,8.0,8.0,90,0.00,,OVC,0.00,VWS V12.08,2013-01-30 21:20:00,
2013-01-30 15:25:00,64.3,61.3,29.69,WNW,302,17.0,17.0,90,0.00,,OVC,0.00,VWS V12.08,2013-01-30 21:25:00,
2013-01-30 15:30:00,64.3,61.3,29.72,West,280,11.0,11.0,90,0.00,,OVC,0.00,VWS V12.08,2013-01-30 21:30:00,
2013-01-30 15:35:00,64.3,61.3,29.72,WNW,295,20.0,24.0,90,0.00,,OVC,0.00,VWS V12.08,2013-01-30 21:35:00,
2013-01-30 15:40:00,64.3,61.3,29.72,WNW,287,21.0,21.0,90,0.00,,OVC,0.00,VWS V12.08,2013-01-30 21:40:00,
2013-01-30 15:45:00,61.5,58.5,29.74,West,260,14.0,21.0,90,0.00,,OVC,0.00,VWS V12.08,2013-01-30 21:45:00,
2013-01-30 15:50:00,61.2,58.2,29.74,West,261,16.0,16.0,90,0.00,,OVC,0.00,VWS V12.08,2013-01-30 21:50:00,
2013-01-30 15:55:00,60.9,58.0,29.74,West,275,10.0,19.0,90,0.00,,OVC,0.00,VWS V12.08,2013-01-30 21:55:00,
2013-01-30 16:00:00,60.2,57.3,29.75,WNW,292,11.0,11.0,90,0.00,,OVC,0.00,VWS V12.08,2013-01-30 22:00:00,
2013-01-30 16:05:00,59.4,55.8,29.75,WNW,287,18.0,31.0,88,0.00,,OVC,0.00,VWS V12.08,2013-01-30 22:05:00,
2013-01-30 16:10:00,59.4,54.6,29.75,West,278,14.0,14.0,84,0.00,,OVC,0.00,VWS V12.08,2013-01-30 22:10:00,
2013-01-30 16:15:00,58.8,53.7,29.77,WNW,285,14.0,14.0,83,0.00,,OVC,0.00,VWS V12.08,2013-01-30 22:15:00,
2013-01-30 16:20:00,58.3,52.5,29.77,WNW,282,17.0,17.0,81,0.00,,OVC,0.00,VWS V12.08,2013-01-30 22:20:00,
2013-01-30 16:25:00,57.9,52.5,29.77,West,268,12.0,17.0,82,0.00,,OVC,0.00,VWS V12.08,2013-01-30 22:25:00,
2013-01-30 16:30:00,57.6,52.2,29.78,West,278,17.0,17.0,82,0.00,,OVC,0.00,VWS V12.08,2013-01-30 22:30:00,
2013-01-30 16:35:00,57.2,50.8,29.78,WNW,298,11.0,17.0,79,0.00,,OVC,0.00,VWS V12.08,2013-01-30 22:35:00,
2013-01-30 16:40:00,57.0,48.8,29.78,NW,311,12.0,12.0,74,0.00,,OVC,0.00,VWS V12.08,2013-01-30 22:40:00,
2013-01-30 16:45:00,56.7,48.9,29.78,WSW,256,6.0,20.0,75,0.00,,OVC,0.00,VWS V12.08,2013-01-30 22:45:00,
2013-01-30 16:50:00,56.4,48.9,29.78,WNW,296,6.0,10.0,76,0.00,,OVC,0.00,VWS V12.08,2013-01-30 22:50:00,
2013-01-30 16:55:00,56.5,48.7,29.78,WNW,282,12.0,17.0,75,0.00,,OVC,0.00,VWS V12.08,2013-01-30 22:55:00,
2013-01-30 17:00:00,56.3,48.1,29.78,WNW,285,7.0,11.0,74,0.00,,OVC,0.00,VWS V12.08,2013-01-30 23:00:00,
2013-01-30 17:05:00,56.3,48.1,29.78,West,277,10.0,12.0,74,0.00,,OVC,0.00,VWS V12.08,2013-01-30 23:05:00,
2013-01-30 17:10:00,56.1,47.9,29.78,WNW,289,11.0,11.0,74,0.00,,OVC,0.00,VWS V12.08,2013-01-30 23:10:00,
2013-01-30 17:15:00,56.1,48.3,29.78,West,281,8.0,17.0,75,0.00,,OVC,0.00,VWS V12.08,2013-01-30 23:15:00,
2013-01-30 17:20:00,55.9,48.5,29.78,WNW,282,5.0,5.0,76,0.00,,OVC,0.00,VWS V12.08,2013-01-30 23:20:00,
2013-01-30 17:25:00,55.7,48.6,29.78,NW,305,7.0,10.0,77,0.00,,OVC,0.00,VWS V12.08,2013-01-30 23:25:00,
2013-01-30 17:30:00,55.7,48.6,29.77,West,280,3.0,3.0,77,0.00,,OVC,0.00,VWS V12.08,2013-01-30 23:30:00,
2013-01-30 17:35:00,55.4,49.0,29.77,WNW,287,6.0,12.0,79,0.00,,OVC,0.00,VWS V12.08,2013-01-30 23:35:00,
2013-01-30 17:40:00,55.3,48.9,29.77,WNW,287,8.0,8.0,79,0.00,,OVC,0.00,VWS V12.08,2013-01-30 23:40:00,
2013-01-30 17:45:00,55.3,48.9,29.78,West,267,5.0,17.0,79,0.00,,OVC,0.00,VWS V12.08,2013-01-30 23:45:00,
2013-01-30 17:50:00,55.3,48.6,29.78,WNW,294,11.0,11.0,78,0.00,,OVC,0.00,VWS V12.08,2013-01-30 23:50:00,
2013-01-30 17:55:00,55.5,48.8,29.78,NW,308,5.0,18.0,78,0.00,,OVC,0.00,VWS V12.08,2013-01-30 23:55:00,
2013-01-30 18:00:00,55.6,48.9,29.79,WNW,288,11.0,11.0,78,0.00,,OVC,0.00,VWS V12.08,2013-01-31 00:00:00,
2013-01-30 18:05:00,55.3,48.6,29.79,NW,312,7.0,11.0,78,0.00,,OVC,0.00,VWS V12.08,2013-01-31 00:05:00,
2013-01-30 18:10:00,55.3,48.2,29.79,WNW,287,12.0,14.0,77,0.00,,OVC,0.00,VWS V12.08,2013-01-31 00:10:00,
2013-01-30 18:15:00,55.3,48.2,29.80,NW,308,5.0,14.0,77,0.00,,OVC,0.00,VWS V12.08,2013-01-31 00:15:00,
2013-01-30 18:20:00,55.2,48.1,29.80,WSW,247,12.0,12.0,77,0.00,,OVC,0.00,VWS V12.08,2013-01-31 00:20:00,
2013-01-30 18:25:00,55.2,47.8,29.80,West,277,12.0,13.0,76,0.00,,OVC,0.00,VWS V12.08,2013-01-31 00:25:00,
2013-01-30 18:30:00,55.2,47.8,29.83,West,278,8.0,8.0,76,0.00,,OVC,0.00,VWS V12.08,2013-01-31 00:30:00,
2013-01-30 18:35:00,55.3,48.2,29.83,WNW,292,6.0,11.0,77,0.00,,OVC,0.00,VWS V12.08,2013-01-31 00:35:00,
2013-01-30 18:40:00,55.3,48.2,29.83,West,280,10.0,12.0,77,0.00,,OVC,0.00,VWS V12.08,2013-01-31 00:40:00,
2013-01-30 18:45:00,54.9,48.5,29.84,WSW,239,7.0,12.0,79,0.00,,OVC,0.00,VWS V12.08,2013-01-31 00:45:00,
2013-01-30 18:50:00,54.5,48.5,29.84,West,267,10.0,10.0,80,0.00,,OVC,0.00,VWS V12.08,2013-01-31 00:50:00,
2013-01-30 18:55:00,54.3,48.9,29.84,NW,308,8.0,10.0,82,0.00,,OVC,0.00,VWS V12.08,2013-01-31 00:55:00,
2013-01-30 19:00:00,54.8,49.1,29.83,West,264,14.0,17.0,81,0.00,,OVC,0.00,VWS V12.08,2013-01-31 01:00:00,
2013-01-30 19:05:00,55.0,49.0,29.83,WNW,302,11.0,17.0,80,0.00,,OVC,0.00,VWS V12.08,2013-01-31 01:05:00,
2013-01-30 19:10:00,55.5,49.4,29.83,WSW,258,12.0,12.0,80,0.00,,OVC,0.00,VWS V12.08,2013-01-31 01:10:00,
2013-01-30 19:15:00,55.8,49.4,29.86,WNW,295,10.0,12.0,79,0.00,,OVC,0.00,VWS V12.08,2013-01-31 01:15:00,
2013-01-30 19:20:00,56.0,49.6,29.86,West,272,9.0,9.0,79,0.00,,OVC,0.00,VWS V12.08,2013-01-31 01:20:00,
2013-01-30 19:25:00,56.2,49.8,29.86,West,277,12.0,17.0,79,0.00,,OVC,0.00,VWS V12.08,2013-01-31 01:25:00,
2013-01-30 19:30:00,56.2,49.8,29.87,WSW,257,11.0,11.0,79,0.00,,OVC,0.00,VWS V12.08,2013-01-31 01:30:00,
2013-01-30 19:35:00,55.8,50.1,29.87,West,277,18.0,18.0,81,0.00,,OVC,0.00,VWS V12.08,2013-01-31 01:35:00,
2013-01-30 19:40:00,55.5,50.1,29.87,WNW,289,7.0,12.0,82,0.00,,OVC,0.00,VWS V12.08,2013-01-31 01:40:00,
2013-01-30 19:45:00,55.6,50.2,29.88,WNW,294,6.0,16.0,82,0.00,,OVC,0.00,VWS V12.08,2013-01-31 01:45:00,
2013-01-30 19:50:00,55.7,50.3,29.88,WNW,282,9.0,10.0,82,0.00,,OVC,0.00,VWS V12.08,2013-01-31 01:50:00,
2013-01-30 19:55:00,56.0,49.9,29.88,NW,305,10.0,12.0,80,0.00,,OVC,0.00,VWS V12.08,2013-01-31 01:55:00,
2013-01-30 20:00:00,56.1,50.0,29.87,WSW,247,8.0,8.0,80,0.00,,OVC,0.00,VWS V12.08,2013-01-31 02:00:00,
2013-01-30 20:05:00,56.1,49.7,29.87,WNW,284,6.0,16.0,79,0.00,,OVC,0.00,VWS V12.08,2013-01-31 02:05:00,
2013-01-30 20:10:00,56.0,49.6,29.87,WNW,282,17.0,17.0,79,0.00,,OVC,0.00,VWS V12.08,2013-01-31 02:10:00,
2013-01-30 20:15:00,56.2,49.8,29.88,West,267,11.0,17.0,79,0.00,,OVC,0.00,VWS V12.08,2013-01-31 02:15:00,
2013-01-30 20:20:00,56.2,49.8,29.88,NW,315,8.0,8.0,79,0.00,,OVC,0.00,VWS V12.08,2013-01-31 02:20:00,
2013-01-30 20:25:00,56.2,48.8,29.88,West,278,6.0,8.0,76,0.00,,OVC,0.00,VWS V12.08,2013-01-31 02:25:00,
2013-01-30 20:30:00,56.5,49.0,29.88,West,265,12.0,12.0,76,0.00,,OVC,0.00,VWS V12.08,2013-01-31 02:30:00,
2013-01-30 20:35:00,56.5,49.0,29.88,WNW,284,11.0,12.0,76,0.00,,OVC,0.00,VWS V12.08,2013-01-31 02:35:00,
2013-01-30 20:40:00,56.6,48.8,29.88,NNW,330,16.0,16.0,75,0.00,,OVC,0.00,VWS V12.08,2013-01-31 02:40:00,
2013-01-30 20:45:00,56.5,48.3,29.89,WSW,247,7.0,19.0,74,0.00,,OVC,0.00,VWS V12.08,2013-01-31 02:45:00,
2013-01-30 20:50:00,56.5,48.3,29.89,West,275,8.0,8.0,74,0.00,,OVC,0.00,VWS V12.08,2013-01-31 02:50:00,
2013-01-30 20:55:00,56.5,48.3,29.89,West,265,13.0,19.0,74,0.00,,OVC,0.00,VWS V12.08,2013-01-31 02:55:00,
2013-01-30 21:00:00,56.6,48.4,29.91,WNW,284,11.0,19.0,74,0.00,,OVC,0.00,VWS V12.08,2013-01-31 03:00:00,
2013-01-30 21:05:00,56.3,48.5,29.91,West,263,14.0,21.0,75,0.00,,OVC,0.00,VWS V12.08,2013-01-31 03:05:00,
2013-01-30 21:10:00,56.2,48.8,29.91,West,280,17.0,17.0,76,0.00,,OVC,0.00,VWS V12.08,2013-01-31 03:10:00,
2013-01-30 21:15:00,56.0,48.9,29.92,WNW,292,21.0,24.0,77,0.00,,OVC,0.00,VWS V12.08,2013-01-31 03:15:00,
2013-01-30 21:20:00,56.1,49.0,29.92,WNW,302,13.0,13.0,77,0.00,,OVC,0.00,VWS V12.08,2013-01-31 03:20:00,
2013-01-30 21:25:00,55.9,48.8,29.92,WNW,291,13.0,20.0,77,0.00,,OVC,0.00,VWS V12.08,2013-01-31 03:25:00,
2013-01-30 21:30:00,55.7,48.3,29.93,NW,319,18.0,18.0,76,0.00,,OVC,0.00,VWS V12.08,2013-01-31 03:30:00,
2013-01-30 21:35:00,55.4,46.2,29.93,North,0,14.0,28.0,71,0.00,,OVC,0.00,VWS V12.08,2013-01-31 03:35:00,
2013-01-30 21:40:00,55.0,45.4,29.93,West,280,19.0,19.0,70,0.00,,OVC,0.00,VWS V12.08,2013-01-31 03:40:00,
2013-01-30 21:45:00,54.8,44.8,29.95,WSW,251,20.0,25.0,69,0.00,,OVC,0.00,VWS V12.08,2013-01-31 03:45:00,
2013-01-30 21:50:00,54.6,44.7,29.95,NW,325,17.0,17.0,69,0.00,,OVC,0.00,VWS V12.08,2013-01-31 03:50:00,
2013-01-30 21:55:00,54.4,43.7,29.95,WNW,282,12.0,24.0,67,0.00,,OVC,0.00,VWS V12.08,2013-01-31 03:55:00,
2013-01-30 22:00:00,54.0,44.5,29.97,NW,319,12.0,19.0,70,0.00,,OVC,0.00,VWS V12.08,2013-01-31 04:00:00,
2013-01-30 22:05:00,53.9,44.3,29.97,WNW,282,12.0,30.0,70,0.00,,OVC,0.00,VWS V12.08,2013-01-31 04:05:00,
2013-01-30 22:10:00,53.8,44.3,29.97,WNW,299,16.0,16.0,70,0.00,,OVC,0.00,VWS V12.08,2013-01-31 04:10:00,
2013-01-30 22:15:00,53.4,43.9,29.97,WNW,292,10.0,30.0,70,0.00,,OVC,0.00,VWS V12.08,2013-01-31 04:15:00,
2013-01-30 22:20:00,53.2,44.0,29.97,WNW,287,13.0,21.0,71,0.00,,OVC,0.00,VWS V12.08,2013-01-31 04:20:00,
2013-01-30 22:25:00,52.9,43.0,29.97,WNW,284,24.0,25.0,69,0.00,,OVC,0.00,VWS V12.08,2013-01-31 04:25:00,
2013-01-30 22:30:00,52.7,42.5,29.98,West,281,10.0,10.0,68,0.00,,OVC,0.00,VWS V12.08,2013-01-31 04:30:00,
2013-01-30 22:35:00,52.5,43.0,29.98,WNW,292,11.0,24.0,70,0.00,,OVC,0.00,VWS V12.08,2013-01-31 04:35:00,
2013-01-30 22:40:00,52.3,42.8,29.98,West,277,17.0,17.0,70,0.00,,OVC,0.00,VWS V12.08,2013-01-31 04:40:00,
2013-01-30 22:45:00,51.8,42.0,29.99,WNW,284,15.0,17.0,69,0.00,,OVC,0.00,VWS V12.08,2013-01-31 04:45:00,
2013-01-30 22:50:00,51.6,42.5,29.99,NNW,335,21.0,24.0,71,0.00,,OVC,0.00,VWS V12.08,2013-01-31 04:50:00,
2013-01-30 22:55:00,51.6,42.5,29.99,West,275,18.0,24.0,71,0.00,,OVC,0.00,VWS V12.08,2013-01-31 04:55:00,
2013-01-30 23:00:00,51.4,42.7,30.00,WNW,282,14.0,25.0,72,0.00,,OVC,0.00,VWS V12.08,2013-01-31 05:00:00,
2013-01-30 23:06:00,50.9,42.6,30.00,NNW,343,5.0,24.0,73,0.00,,OVC,0.00,VWS V12.08,2013-01-31 05:06:00,
2013-01-30 23:11:00,50.7,42.0,30.00,WNW,295,8.0,22.0,72,0.00,,OVC,0.00,VWS V12.08,2013-01-31 05:11:00,
2013-01-30 23:16:00,50.5,41.5,30.01,WNW,291,26.0,26.0,71,0.00,,OVC,0.00,VWS V12.08,2013-01-31 05:16:00,
2013-01-30 23:21:00,50.2,41.5,30.01,NW,326,33.0,33.0,72,0.00,,OVC,0.00,VWS V12.08,2013-01-31 05:21:00,
2013-01-30 23:26:00,49.7,39.6,30.01,NW,326,17.0,33.0,68,0.00,,OVC,0.00,VWS V12.08,2013-01-31 05:26:00,
2013-01-30 23:31:00,49.6,40.2,30.02,NW,312,17.0,17.0,70,0.00,,OVC,0.00,VWS V12.08,2013-01-31 05:31:00,
2013-01-30 23:36:00,49.7,38.8,30.02,NW,322,18.0,34.0,66,0.00,,OVC,0.00,VWS V12.08,2013-01-31 05:36:00,
2013-01-30 23:41:00,49.3,39.2,30.02,WNW,299,17.0,20.0,68,0.00,,OVC,0.00,VWS V12.08,2013-01-31 05:41:00,
2013-01-30 23:46:00,49.1,38.6,30.04,NW,305,17.0,21.0,67,0.00,,OVC,0.00,VWS V12.08,2013-01-31 05:46:00,
2013-01-30 23:51:00,49.0,37.8,30.04,WNW,302,10.0,19.0,65,0.00,,OVC,0.00,VWS V12.08,2013-01-31 05:51:00,
2013-01-30 23:56:00,48.9,38.1,30.04,NNW,328,12.0,27.0,66,0.00,,OVC,0.00,VWS V12.08,2013-01-31 05:56:00,